Total_Precipitation_Accumulation
0.98 1.01 0.92 1.05 1.11 1.10 1.10 1.08 0.98 0.91 0.86 0.70 0.66 0.59 0.48 0.31 0.25 0.26 0.34 0.28 0.35 0.49 0.52 0.42 0.31 0.24 0.21 0.23 0.28 0.38 0.47 0.49 0.60 0.73 0.68 0.64 0.56 0.43 0.32 0.22 0.18 0.18 0.12
0.87 1.03 0.96 0.94 1.01 1.20 1.25 1.18 1.06 1.03 0.98 0.78 0.69 0.66 0.57 0.45 0.39 0.36 0.38 0.32 0.22 0.26 0.38 0.41 0.36 0.29 0.23 0.23 0.27 0.39 0.48 0.48 0.51 0.61 0.68 0.70 0.68 0.52 0.40 0.28 0.23 0.21 0.17
0.81 0.97 0.92 0.82 0.80 0.95 1.13 1.24 1.24 1.14 1.00 0.86 0.74 0.68 0.58 0.52 0.48 0.47 0.42 0.39 0.30 0.18 0.23 0.32 0.34 0.30 0.29 0.30 0.30 0.34 0.41 0.43 0.49 0.58 0.65 0.66 0.63 0.62 0.54 0.41 0.35 0.39 0.40
0.59 0.78 0.85 0.75 0.75 0.90 1.10 1.23 1.30 1.28 1.13 1.03 0.97 0.83 0.70 0.58 0.49 0.49 0.41 0.40 0.38 0.31 0.28 0.26 0.29 0.30 0.31 0.32 0.33 0.32 0.37 0.39 0.42 0.52 0.58 0.54 0.46 0.45 0.42 0.43 0.44 0.50 0.55
0.52 0.71 0.88 0.90 0.90 0.98 1.08 1.14 1.28 1.29 1.26 1.13 1.02 0.86 0.73 0.64 0.47 0.40 0.40 0.41 0.42 0.39 0.38 0.29 0.23 0.22 0.27 0.33 0.31 0.31 0.34 0.36 0.33 0.37 0.39 0.40 0.36 0.35 0.35 0.36 0.38 0.41 0.44
0.64 0.82 1.02 1.11 1.22 1.23 1.24 1.37 1.60 1.54 1.32 1.22 1.13 0.89 0.66 0.59 0.51 0.48 0.41 0.37 0.42 0.41 0.38 0.38 0.28 0.16 0.16 0.25 0.32 0.28 0.31 0.34 0.31 0.34 0.35 0.32 0.29 0.30 0.30 0.27 0.29 0.30 0.31
0.79 0.99 1.19 1.41 1.53 1.40 1.36 1.51 1.73 1.83 1.57 1.38 1.32 1.12 0.87 0.63 0.52 0.52 0.49 0.40 0.41 0.41 0.44 0.50 0.40 0.33 0.25 0.22 0.22 0.22 0.28 0.34 0.34 0.38 0.42 0.40 0.31 0.28 0.25 0.21 0.19 0.22 0.24
0.89 0.94 1.14 1.33 1.39 1.42 1.41 1.46 1.61 1.85 1.74 1.54 1.54 1.70 1.42 1.07 0.65 0.46 0.50 0.46 0.45 0.42 0.42 0.42 0.43 0.43 0.37 0.38 0.19 0.12 0.17 0.28 0.36 0.37 0.41 0.44 0.39 0.29 0.26 0.21 0.17 0.17 0.20
1.18 1.15 1.18 1.32 1.39 1.49 1.46 1.45 1.48 1.64 1.71 1.63 1.62 1.95 1.72 1.42 1.25 0.79 0.55 0.55 0.59 0.57 0.49 0.49 0.51 0.50 0.41 0.42 0.37 0.20 0.11 0.14 0.27 0.34 0.41 0.46 0.42 0.31 0.26 0.25 0.22 0.20 0.19
1.49 1.47 1.47 1.56 1.48 1.43 1.37 1.36 1.38 1.48 1.72 1.71 1.64 1.57 1.49 1.41 1.54 1.28 0.81 0.62 0.64 0.60 0.57 0.52 0.54 0.57 0.54 0.47 0.48 0.37 0.19 0.12 0.20 0.32 0.43 0.46 0.40 0.32 0.27 0.29 0.29 0.26 0.22
2.08 1.99 1.92 1.77 1.58 1.47 1.43 1.47 1.45 1.49 1.57 1.59 1.55 1.48 1.48 1.40 1.18 1.18 1.12 0.88 0.71 0.60 0.59 0.58 0.59 0.60 0.63 0.60 0.56 0.47 0.35 0.17 0.16 0.29 0.42 0.51 0.48 0.40 0.31 0.25 0.26 0.27 0.23
2.03 1.97 1.84 1.61 1.43 1.36 1.40 1.49 1.50 1.50 1.49 1.50 1.46 1.35 1.31 1.26 1.14 1.17 1.06 1.05 1.04 0.73 0.59 0.53 0.55 0.56 0.57 0.63 0.70 0.79 0.57 0.34 0.20 0.23 0.32 0.45 0.54 0.54 0.45 0.34 0.25 0.24 0.23
1.42 1.45 1.45 1.41 1.35 1.29 1.35 1.51 1.57 1.57 1.56 1.52 1.42 1.33 1.35 1.25 1.30 1.39 1.31 1.18 1.09 0.80 0.60 0.47 0.46 0.52 0.55 0.57 0.76 0.96 0.75 0.57 0.36 0.26 0.26 0.29 0.35 0.48 0.57 0.56 0.47 0.38 0.33
1.24 1.25 1.32 1.32 1.31 1.31 1.32 1.37 1.47 1.58 1.58 1.51 1.45 1.48 1.44 1.29 1.36 1.33 1.28 1.33 1.13 0.91 0.67 0.45 0.40 0.44 0.50 0.54 0.76 0.98 0.67 0.63 0.50 0.37 0.31 0.26 0.23 0.26 0.35 0.50 0.64 0.67 0.63
0.93 1.04 1.14 1.20 1.16 1.17 1.20 1.29 1.41 1.46 1.53 1.56 1.55 1.55 1.54 1.47 1.46 1.42 1.46 1.41 1.27 1.04 0.81 0.58 0.46 0.39 0.45 0.51 0.76 0.73 0.60 0.64 0.58 0.45 0.36 0.29 0.23 0.20 0.22 0.28 0.36 0.44 0.53
0.82 0.89 0.86 0.82 0.81 0.86 0.88 0.97 1.13 1.22 1.26 1.33 1.35 1.39 1.41 1.41 1.46 1.46 1.49 1.50 1.39 1.19 0.99 0.78 0.65 0.54 0.58 0.56 0.67 0.58 0.63 0.80 0.67 0.54 0.42 0.33 0.26 0.22 0.19 0.18 0.19 0.20 0.22
0.52 0.60 0.55 0.52 0.58 0.62 0.59 0.66 0.76 0.86 0.95 1.00 1.02 1.05 1.12 1.19 1.26 1.30 1.39 1.43 1.41 1.30 1.00 0.89 0.78 0.65 0.68 0.69 0.71 0.64 0.68 0.71 0.65 0.60 0.48 0.39 0.34 0.28 0.24 0.21 0.18 0.17 0.17
0.22 0.29 0.32 0.32 0.40 0.51 0.52 0.57 0.61 0.63 0.69 0.73 0.77 0.82 0.88 0.95 1.04 1.11 1.16 1.21 1.29 1.33 1.20 1.02 0.88 0.74 0.66 0.69 0.83 0.87 0.85 0.78 0.76 0.82 0.75 0.59 0.49 0.40 0.32 0.26 0.22 0.20 0.19
0.16 0.20 0.23 0.26 0.29 0.39 0.50 0.56 0.58 0.54 0.53 0.51 0.52 0.56 0.65 0.72 0.83 0.90 0.94 1.00 1.10 1.17 1.23 1.09 1.00 0.92 0.78 0.73 0.84 0.85 0.91 1.08 1.00 1.05 1.14 0.94 0.71 0.57 0.45 0.37 0.32 0.28 0.25
0.16 0.15 0.14 0.16 0.24 0.34 0.43 0.51 0.55 0.52 0.49 0.48 0.49 0.49 0.52 0.54 0.59 0.69 0.81 0.97 1.08 1.20 1.25 1.15 1.11 1.08 0.96 0.88 0.94 1.00 1.07 1.16 1.22 1.10 1.11 1.07 0.98 0.84 0.68 0.57 0.51 0.44 0.39
0.12 0.08 0.06 0.08 0.16 0.21 0.26 0.40 0.45 0.45 0.48 0.45 0.46 0.51 0.52 0.48 0.47 0.51 0.51 0.67 0.84 1.04 1.18 1.22 1.21 1.23 1.16 1.07 0.98 1.04 1.16 1.29 1.39 1.39 1.28 1.14 1.09 0.96 0.85 0.75 0.67 0.60 0.56
0.09 0.07 0.05 0.05 0.07 0.08 0.14 0.21 0.30 0.40 0.47 0.50 0.51 0.54 0.52 0.46 0.49 0.48 0.46 0.48 0.56 0.68 0.85 0.96 1.04 1.09 1.13 1.20 1.27 1.29 1.31 1.37 1.45 1.46 1.32 1.33 1.25 1.12 0.96 0.81 0.78 0.78 0.74
0.04 0.03 0.04 0.04 0.04 0.04 0.04 0.07 0.17 0.33 0.47 0.48 0.47 0.61 0.67 0.60 0.59 0.62 0.63 0.56 0.48 0.45 0.57 0.74 0.86 0.90 0.97 1.08 1.27 1.34 1.37 1.37 1.28 1.33 1.21 1.26 1.22 1.10 1.00 0.94 0.92 0.85 0.83
0.02 0.03 0.04 0.07 0.04 0.02 0.02 0.03 0.08 0.23 0.38 0.42 0.42 0.54 0.79 0.83 0.73 0.69 0.73 0.82 0.73 0.56 0.53 0.56 0.69 0.78 0.81 0.97 1.28 1.49 1.47 1.27 1.20 1.25 1.17 1.17 1.13 1.04 0.97 0.93 0.95 0.85 0.80
0.02 0.02 0.03 0.05 0.04 0.03 0.02 0.03 0.06 0.17 0.28 0.32 0.36 0.48 0.64 0.79 0.73 0.69 0.69 0.76 0.80 0.69 0.61 0.60 0.55 0.60 0.70 0.87 1.13 1.37 1.45 1.39 1.24 1.20 1.07 0.98 1.01 1.03 1.06 1.00 0.95 0.91 0.81
0.02 0.02 0.01 0.01 0.01 0.01 0.02 0.03 0.05 0.10 0.15 0.15 0.22 0.38 0.54 0.54 0.50 0.55 0.67 0.78 0.87 0.71 0.61 0.68 0.67 0.68 0.68 0.86 1.17 1.36 1.43 1.37 1.24 1.20 1.12 1.02 1.00 1.02 1.19 1.17 1.01 0.96 0.90